www.pogodaiklimat.ru

Погода и климат >> Архив погоды >> Россия >> Ненецкий АО >> Имени Федорова


ПОГОДА в Имени Федорова

  • Прогноз погоды в Имени Федорова
  • Монитор погоды в Имени Федорова
  • Климат города

АРХИВ ПОГОДЫ в Имени Федорова

Время (UTC), дата Ветер
(напр.,м/с)
 
Видим.   Явления Облачность Т
(С)
Тd
(С)
f
(%)
Тe
(С)
Тes
(С)
Комфортность P
(гПа)
Po
(гПа)
Тmin
(С)
Tmax
(С)
R
(мм)
R24
(мм)
S
(см)
15 21.04 В 7 10 км 5/3 300 м
[Sc Ci fib]
-9.0 -12.4 76 -18 -18 1012.0 1010.6 -6.5
18 21.04 В 10-13
{14}
10 км сильный позёмок {метель} 8/3 300 м
[Sc Ci fib]
-9.8 -12.4 81 -20 -20 1009.4 1008.0
21 21.04 В 13-17
{17}
4000 м метель 10/10 600 м
[Sc]
-9.0 -10.8 87 -21 -21 1005.5 1004.1
00 22.04 В 13-16
{18}
1000 м слабый снег {метель} 10/0 330 м
[As op]
-8.8 -10.1 90 -20 -20 1002.5 1001.1
03 22.04 В 11-14
{19}
1000 м слабый снег {метель} 10/0 330 м
[As op]
-8.7 -9.8 92 -20 -20 999.8 998.4 -10.0 0.3 3
06 22.04 СВ 12-16
{17}
500 м слабый снег {метель} 10/0
[As trans]
-8.2 -9.6 90 -19 -19 997.2 995.8
09 22.04 СВ 11-14
{17}
1000 м слабый снег {метель} 10/0
[As trans]
-7.8 -9.3 89 -19 -19 995.7 994.3
12 22.04 СВ 8-11
{14}
4000 м слабый снег {метель} 10/0
[As trans]
-7.9 -9.3 90 -17 -17 995.0 993.6
15 22.04 СВ 7
{11}
10 км позёмок {снег, метель} 10/0
[Ac und]
-8.3 -9.6 90 -17 -17 994.6 993.2 -7.4 1
18 22.04 С 6 2000 м слабый ливневой снег {метель} 10/10 540 м
[Cb cap]
-8.7 -11.8 78 -17 -17 999.8 998.4
21 22.04 С 5 10 км позёмок {ливн. осадки, метель} 10/10 540 м
[Sc]
-9.4 -10.7 90 -17 -17 999.8 998.4
00 23.04 С 4 10 км {ливн. осадки, метель} 10/10 480 м
[Sc]
-9.9 -11.3 89 -17 -17 999.8 998.4
03 23.04 СЗ 4 10 км 8/0
[Ac trans]
-10.3 -13.8 75 -17 -17 999.8 998.4 -10.5 4
06 23.04 З 4 10 км 9/9 540 м
[Sc]
-9.8 -11.2 89 -17 -16 998.5 997.1
09 23.04 СЗ 6 10 км 9/9 540 м
[Sc]
-9.0 -12.3 77 -17 -17 1000.9 999.5
12 23.04 СЗ 6 10 км 9/9 540 м
[Sc]
-9.0 -12.3 77 -17 -17 1000.9 999.5
15 23.04 З 4 20 км 4/1 300 м
[Sc Ci fib]
-10.3 -12.1 87 -17 -17 1005.3 1003.9 -8.5
18 23.04 ЮЗ 6 10 км 10/10 1020 м
[Sc]
-10.3 -12.0 87 -19 -19 1006.7 1005.3
21 23.04 ЮЗ 6 10 км позёмок {метель} 3/3 300 м
[Sc]
-10.2 -13.9 74 -19 -19 1007.0 1005.6
00 24.04 ЮЗ 6 10 км позёмок {метель} 8/0
[Ac trans]
-9.2 -12.6 76 -18 -18 1007.2 1005.8
03 24.04 ЮЗ 7 10 км позёмок {метель} 10/0
[Ac und]
-7.0 -8.4 90 -16 -16 999.8 998.4 -13.7 4
06 24.04 ЮЗ 6 1000 м ливневой снег {метель} 10/10 420 м
[Cb cap]
-5.9 -7.2 91 -14 -14 1008.3 1006.9
09 24.04 штиль 0 10 км в посл. час ливневой снег {метель} 9/5 300 м
[Cb cap Ci fib]
-3.7 -5.5 87 -5 -1 1008.9 1007.5
12 24.04 С 1 10 км {ливн. осадки, метель} 8/0
[Ac trans]
-4.1 -7.0 80 -6 -4 1010.1 1008.7
15 24.04 СЗ 2 10 км 10/10 330 м
[Sc]
-5.5 -6.6 92 -10 -10 1011.1 1009.7 -3.5 2
18 24.04 С 5 10 км 10/10 450 м
[Sc]
-7.4 -9.0 88 -15 -15 1012.7 1011.3
21 24.04 СЗ 1 500 м туман ?/? -10.2 -12.1 86 -13 -13 1013.9 1012.5
00 25.04 З 1 500 м туман ?/? -10.8 -11.9 92 -13 -13 1014.0 1012.6
03 25.04 Ю 4 20 км 5/0
[Ac trans]
-12.8 -14.2 89 -20 -19 1014.5 1013.1 -15.3 4
06 25.04 Ю 6 10 км позёмок {туман, метель} 8/0
[Ac trans]
-6.1 -7.3 91 -14 -13 1014.9 1013.5
12 25.04 ЮЗ 5 20 км {метель} 10/10 960 м
[Sc]
-3.1 -5.5 83 -10 -10 1015.2 1013.8
15 25.04 ЮЗ 6 20 км 5/5 300 м
[Sc]
-6.6 -8.5 86 -15 -15 1015.3 1013.9 -2.8
18 25.04 штиль 0 50 км ?/? -4.3 -6.0 88 -5 -5 1015.6 1014.2
21 25.04 ЮЗ 7 10 км позёмок {метель} 10/10 630 м
[Sc]
-4.3 -5.6 91 -13 -13 1015.2 1013.8
00 26.04 ЮЗ 7 10 км позёмок {метель} 10/10 630 м
[Sc]
-3.9 -5.5 89 -12 -12 1015.3 1013.9
03 26.04 З 8-10
{10}
10 км позёмок {метель} 10/10 480 м
[Sc]
-2.7 -3.5 94 -11 -11 1016.0 1014.7 -6.8 4
06 26.04 З 7 20 км позёмок {метель} 6/1 300 м
[Cb cap Ac trans]
-3.6 -7.2 76 -11 -10 1017.4 1016.1
09 26.04 З 3 10 км {метель} 8/3 300 м
[Cb cap Ac trans]
-3.0 -4.5 89 -8 -6 1019.0 1017.7
12 26.04 З 4 2000 м слабый ливневой снег {метель} 10/10 540 м
[Cb cap]
-2.9 -5.6 82 -9 -9 1020.1 1018.8
15 26.04 З 5 10 км {ливн. осадки} 10/10 720 м
[Sc]
-3.5 -4.6 92 -10 -10 1020.7 1019.4 -2.3 0.5
18 26.04 З 4 10 км {ливн. осадки} 8/4 600 м
[Sc Ac trans]
-6.1 -6.8 95 -13 -13 1021.4 1020.1
21 26.04 СЗ 2 10 км 10/10 330 м
[Sc]
-4.3 -6.7 83 -8 -8 1021.5 1020.2
00 27.04 З 1 500 м туман ?/? -5.6 -7.7 85 -8 -8 1020.9 1019.6
03 27.04 В 1 500 м туман ?/? -7.6 -8.4 94 -10 -10 1019.9 1018.6 -7.6 4
06 27.04 В 3 10 км в посл. час туман 8/8 600 м
[Sc]
-5.6 -6.4 94 -11 -10 1018.7 1017.4 -9.0
09 27.04 В 6 20 км ясно -5.4 -6.7 91 -13 -11 1016.2 1014.9
12 27.04 В 8-12
{12}
20 км позёмок {метель} 8/0
[Ac trans]
-5.6 -8.7 79 -14 -14 1013.3 1012.0
15 27.04 В 8-10
{14}
10 км позёмок {метель} 9/9 600 м
[Sc]
-6.5 -7.5 93 -16 -16 1012.0 1005.5 -5.2
18 27.04 В 11-14
{15}
10 км сильный позёмок {метель} 10/10 500 м
[Sc]
-6.1 -7.3 91 -16 -16 999.8 998.4
21 27.04 В 11-14
{17}
10 км сильный позёмок {метель} 10/10 540 м
[Sc]
-7.0 -8.8 87 -18 -18 999.8 998.4
00 28.04 В 11-14
{15}
10 км сильный позёмок {метель} 10/10 480 м
[Sc]
-7.3 -8.9 88 -18 -18 999.8 998.4
03 28.04 СВ 12-16
{16}
10 км сильный позёмок {метель} 10/10 480 м
[Sc]
-7.4 -8.9 89 -18 -18 999.8 998.4 -7.5 4
06 28.04 СВ 11-14
{16}
10 км сильный позёмок {метель} 10/10 500 м
[Sc]
-7.5 -9.7 84 -18 -18 999.8 998.4 -7.8
09 28.04 СВ 11 10 км сильный позёмок {метель} 10/10 450 м
[Sc]
-6.5 -8.2 88 -17 -17 1006.6 1005.2

 

Местоположение метеостанции Имени Федорова (Ненецкий АО, Россия): широта 70.45 долгота 59.08 высота над уровнем моря 12 м.

В архиве по умолчанию представлена погода в Имени Федорова за последнюю неделю. Архивные данные за месяц целиком и за предыдущие месяцы, начиная с января 2011 года, Вы можете получить, выбрав интересующий диапазон дат из раскрывающегося списка и нажав кнопку "Ввод!".

Внимание! Время в таблицах - всемирное. Для получения местного времени необходимо прибавить поправку, которая в Имени Федорова равна 3 ч.

Смотрите также архив погоды в соседних городах и на ближайших метеорологических станциях:

Погода на Мысе Белый Нос (Ненецкий АО, Россия) (104 км)
Погода в Амдерме (Ненецкий АО, Россия) (124 км)
Погода в Варандее (Ненецкий АО, Россия) (186 км)
Погода на Мысе Константиновском (Ненецкий АО, Россия) (253 км)
Погода в Усть-Каре (Ненецкий АО, Россия) (261 км)
Погода в Марресаля (Ямало-Ненецкий АО, Россия) (304 км)
Погода в Inari Angeli (Финляндия) (309 км)
Погода в Малых Кармакулах (Архангельская область, Россия) (310 км)
Погода в Хорей-Вере (Ненецкий АО, Россия) (339 км)
Погода в Сенгейском Шаре (Ненецкий АО, Россия) (376 км)

Пояснения к столбцам:

Ветер - указаны скорость ветра в м/с - средняя за 10 мин, порывы в срок и между сроками (в фигурных скобках) и направление, откуда дует ветер: С - северный, СВ - северо-восточный, В - восточный, ЮВ - юго-восточный, Ю - южный, ЮЗ - юго-западный, З - западный, СЗ - северо-западный.
Видимость - горизонтальная дальность видимости в метрах или километрах. При видимости от 1 до 10 км при отсутствии осадков обычно наблюдается дымка, при ухудшении видимости до 1 км и менее - туман. В сухую погоду видимость может ухудшаться дымом, пылью или мглою.
Явления - указаны атмосферные явления, наблюдавшиеся в срок или в последний час перед сроком; фигурными скобками обозначены явления, наблюдавшиеся между сроками (за 1-3 часа до срока); квадратными скобками обозначены град или гололедные отложения с указанием их диаметра в мм.
Облачность - указаны через наклонную черту общая и нижняя облачность в баллах и высота нижней границы облаков в метрах; квадратными скобками обозначены формы облаков: Ci - перистые, Cs - перисто-слоистые, Cc - перисто-кучевые, Ac - высококучевые, As - высокослоистые, Sc - слоисто-кучевые, Ns - слоисто-дождевые, Cu - кучевые, Cb - кучево-дождевые. Подробнее классификацию облаков см. в Атласе облаков (PDF).
T - Температура воздуха - температура, измеренная на высоте 2 м над землей.
Td - Температура точки росы - температура, при понижении до которой содержащийся в воздухе водяной пар достигнет насыщения.
f - Относительная влажность воздуха - влажноcть воздуха, измеренная на высоте 2 м над землей.
Te - Эффективная температура - температура, которую ощущает одетый по сезону человек в тени. Характеристика душности погоды. При расчете учитывается влияние влажности воздуха и скорости ветра на теплоощущения человека.
Tes - Эффективная температура на солнце - температура, которую ощущает человек, с поправкой на солнечный нагрев. Характеристика знойности погоды. Зависит от высоты солнца над горизонтом, облачности и скорости ветра. Ночью, в пасмурную погоду, а также при ветре 12 м/с и более поправка равна нулю.
P - Атмосферное давление - приведенное к уровню моря атмосферное давление.
Po - Атмосферное давление - измеренное на уровне метеостанции атмосферное давление.
Tmin - Минимальная температура - минимум температуры воздуха на высоте 2 м над землей.
Tmax - Максимальная температура - максимум температуры воздуха на высоте 2 м над землей.
R - Количество осадков - Количество выпавших осадков за период времени, мм. При наведении курсора мыши на число - период времени, за который выпало указанное количество осадков.
R24 - Количество осадков - Количество выпавших осадков за 24 часа, мм.
S - Снежный покров - Высота снежного покрова, см. При наведении курсора мыши на число - состояние снежного покрова и степень покрытия местности в баллах.